KB8VUC Weather Reports


Display with metric or nautical units.
time (UTC)temp
F
wind
direction
speed
MPH
gust
MPH
rain 1hr
in
rain 24hr
in
rain mn
in
humidity
%
barometer
mb
20260509031527 48 140 1.0 4.0 0.00 0.00 0.00 42 1001.7
20260509030031 48 136 1.0 2.0 0.00 0.00 0.00 44 1001.9
20260509024506 49 136 0.0 2.0 0.00 0.00 0.00 42 1002.0
20260509023100 49 129 1.0 3.0 0.00 0.00 0.00 42 1002.2
20260509021553 49 136 2.0 3.0 0.00 0.00 0.00 43 1002.3
20260509020100 49 136 1.0 2.0 0.00 0.00 0.00 42 1002.3
20260509014549 50 136 0.0 3.0 0.00 0.00 0.00 44 1002.2
20260509013049 51 117 0.0 1.0 0.00 0.00 0.00 38 1002.0
20260509011553 53 117 0.0 1.0 0.00 0.00 0.00 34 1001.9
20260509010047 54 117 1.0 2.0 0.00 0.00 0.00 27 1002.1
20260509004543 56 118 1.0 2.0 0.00 0.00 0.00 25 1002.0
20260509003027 60 231 1.0 4.0 0.00 0.00 0.00 20 1002.1
20260509001514 60 258 2.0 5.0 0.00 0.00 0.00 20 1002.2
20260509000010 61 253 2.0 8.0 0.00 0.00 0.00 20 1002.4
20260508234512 61 283 4.0 10.0 0.00 0.00 0.00 21 1002.6
20260508233008 62 260 5.0 9.0 0.00 0.00 0.00 1002.7
20260508231505 62 261 5.0 0.0 0.00 0.00 0.00 21 1002.6
20260508230005 62 274 6.0 14.0 0.00 0.00 0.00 22 1002.6
20260508224502 63 292 7.0 12.0 0.00 0.00 0.00 21 1002.5
20260508223003 64 259 9.0 14.0 0.00 0.00 0.00 20 1002.6
20260508221601 63 265 5.0 14.0 0.00 0.00 0.00 1002.7
20260508220052 63 317 6.0 12.0 0.00 0.00 0.00 22 1002.7
20260508214547 65 312 6.0 15.0 0.00 0.00 0.00 19 1002.8
20260508213045 65 261 10.0 16.0 0.00 0.00 0.00 19 1002.8
20260508211550 65 251 8.0 15.0 0.00 0.00 0.00 18 1002.9
20260508210046 66 266 9.0 17.0 0.00 0.00 0.00 20 1002.8
20260508204539 66 212 6.0 18.0 0.00 0.00 0.00 22 1003.0
20260508203043 65 253 6.0 21.0 0.00 0.00 0.00 23 1003.2
20260508201536 65 287 11.0 16.0 0.00 0.00 0.00 21 1003.3
20260508200025 66 300 10.0 17.0 0.00 0.00 0.00 20 1003.5
20260508194520 65 212 9.0 15.0 0.00 0.00 0.00 22 1003.7
20260508193018 65 294 9.0 15.0 0.00 0.00 0.00 21 1003.7
20260508191520 67 228 5.0 13.0 0.00 0.00 0.00 22 1004.0
20260508190019 64 290 11.0 15.0 0.00 0.00 0.00 21 1004.0
20260508184520 66 205 5.0 15.0 0.00 0.00 0.00 21 1004.2
20260508183019 66 232 5.0 16.0 0.00 0.00 0.00 23 1004.3
20260508181514 65 240 6.0 15.0 0.00 0.00 0.00 22 1004.5
20260508180054 63 295 9.0 17.0 0.00 0.00 0.00 24 1004.5
20260508174557 65 325 7.0 17.0 0.00 0.00 0.00 22 1004.8
20260508173050 66 303 7.0 14.0 0.00 0.00 0.00 23 1005.1
20260508171546 65 292 7.0 16.0 0.00 0.00 0.00 24 1005.3
20260508170046 66 293 10.0 16.0 0.00 0.00 0.00 22 1005.5
20260508164542 65 284 4.0 15.0 0.00 0.00 0.00 25 1005.7
20260508163039 66 301 5.0 11.0 0.00 0.00 0.00 26 1006.2
20260508161536 63 200 2.0 10.0 0.00 0.00 0.00 28 1006.2
20260508160025 62 307 5.0 11.0 0.00 0.00 0.00 30 1006.3
20260508154522 60 331 2.0 11.0 0.00 0.00 0.00 33 1006.4
20260508153019 64 246 2.0 13.0 0.00 0.00 0.00 29 1006.4
20260508151518 63 265 4.0 10.0 0.00 0.00 0.00 33 1006.5
20260508150035 60 247 4.0 14.0 0.00 0.00 0.00 33 1006.7
20260508144514 61 213 5.0 9.0 0.00 0.00 0.00 35 1006.8
20260508143014 58 245 2.0 6.0 0.00 0.00 0.00 49 1006.8
20260508141509 55 203 4.0 7.0 0.00 0.00 0.00 53 1007.1
20260508140107 52 138 2.0 7.0 0.00 0.00 0.00 62 1007.0
20260508134556 55 117 2.0 7.0 0.00 0.00 0.00 61 1007.1
20260508133104 52 153 2.0 6.0 0.00 0.00 0.00 1007.2
20260508131550 51 149 3.0 6.0 0.00 0.00 0.00 71 1007.3
20260508130046 48 127 2.0 4.0 0.00 0.00 0.00 74 1007.3
20260508124545 47 161 0.0 3.0 0.00 0.00 0.00 75 1007.4
20260508123042 44 202 1.0 3.0 0.00 0.00 0.00 80 1007.5
20260508121540 41 146 1.0 3.0 0.00 0.00 0.00 85 1007.1
20260508120025 40 144 0.0 0.0 0.00 0.00 0.00 88 1006.9
20260508114529 38 140 0.0 0.0 0.00 0.00 0.00 91 1006.9
20260508113024 36 144 0.0 0.0 0.00 0.00 0.00 92 1006.8
20260508111521 36 144 0.0 0.0 0.00 0.00 0.00 93 1006.7
20260508110020 34 144 0.0 0.0 0.00 0.00 0.00 92 1006.7
20260508104520 33 144 0.0 0.0 0.00 0.00 0.00 92 1006.6
20260508103020 33 61 0.0 0.0 0.00 0.00 0.00 91 1006.4
20260508101520 34 47 0.0 0.0 0.00 0.00 0.00 91 1006.4
20260508100002 34 47 0.0 0.0 0.00 0.00 0.00 90 1006.5
20260508094502 34 47 0.0 0.0 0.00 0.00 0.00 90 1006.5
20260508093002 34 57 0.0 0.0 0.00 0.00 0.00 90 1006.6
20260508091501 34 93 0.0 0.0 0.00 0.00 0.00 91 1006.6
20260508090103 35 153 0.0 0.0 0.00 0.00 0.00 90 1006.7
20260508084613 36 153 0.0 0.0 0.00 0.00 0.00 89 1006.6
20260508083106 36 153 0.0 1.0 0.00 0.00 0.00 86 1006.7
20260508081554 37 153 0.0 0.0 0.00 0.00 0.00 1006.7
20260508080054 37 153 0.0 1.0 0.00 0.00 0.00 86 1006.7
20260508074542 37 153 0.0 0.0 0.00 0.00 0.00 85 1006.7
20260508073041 37 153 0.0 0.0 0.00 0.00 0.00 85 1006.9
20260508071533 38 153 0.0 0.0 0.00 0.00 0.00 83 1007.1
20260508070033 38 153 0.0 0.0 0.00 0.00 0.00 81 1007.3
20260508064544 38 153 0.0 0.0 0.00 0.00 0.00 82 1007.3
20260508063030 39 153 0.0 3.0 0.00 0.00 0.00 1007.4
20260508061531 40 161 2.0 4.0 0.00 0.00 0.00 77 1007.4
20260508060014 40 355 0.0 0.0 0.00 0.00 0.00 74 1007.6
20260508054521 40 347 0.0 0.0 0.00 0.00 0.00 75 1007.5
20260508053010 40 13 0.0 1.0 0.00 0.00 0.00 78 1007.4
20260508051508 40 316 0.0 1.0 0.00 0.00 0.00 83 1007.4
20260508050009 40 288 0.0 0.0 0.00 0.00 0.00 83 1007.5
20260508044505 40 288 0.0 0.0 0.00 0.00 0.00 1007.5
20260508043001 41 288 0.0 0.0 0.00 0.00 0.00 79 1007.2
20260508041603 42 288 0.0 1.0 0.00 0.00 0.00 78 1007.1
20260508040050 43 288 0.0 0.0 0.00 0.00 0.00 77 1007.0
20260508034541 43 288 0.0 1.0 0.00 0.00 0.00 76 1007.0
20260508033014 44 288 0.0 0.0 0.00 0.00 0.00 76 1007.0